When you browse on this site, cookies collect data to enhance your experience and personalize the content and advertising you see.
Visit our Privacy Policy to learn more. By continuing to use the site, you agree to this use of cookies and data.
  • In United Kingdom
  • List of Countries
  • For 7 days
  • Water Temperature
  • Weather Map
  • Weather Widgets
  • user-avatar
    Login

    Hourly Weather Erfurt

    Today, 24 August, Saturday

    Time Temperature Precipitation Wind Pressure Humidity
    00:00 +18°C° 0 mm 1 mps 750 mmHg 71%
    01:00 +15°C° 0 mm 0 mps 750 mmHg 74%
    02:00 +15°C° 0 mm 0 mps 750 mmHg 76%
    03:00 +15°C° 0 mm 0 mps 750 mmHg 78%
    04:00 +14°C° 0 mm 0 mps 750 mmHg 81%
    05:00 +15°C° 0 mm 0 mps 750 mmHg 79%
    06:00 +18°C° 0 mm 1 mps 749 mmHg 77%
    07:00 +19°C° 0 mm 1 mps 749 mmHg 75%
    08:00 +21°C° 0 mm 1 mps 749 mmHg 69%
    09:00 +23°C° 0 mm 2 mps 750 mmHg 63%
    10:00 +25°C° 0 mm 3 mps 750 mmHg 57%
    11:00 +26°C° 0 mm 3 mps 749 mmHg 53%
    12:00 +27°C° 0 mm 3 mps 749 mmHg 50%
    13:00 +29°C° 0 mm 3 mps 749 mmHg 47%
    14:00 +29°C° 0 mm 3 mps 748 mmHg 48%
    15:00 +29°C° 0 mm 4 mps 748 mmHg 49%
    16:00 +29°C° 0 mm 4 mps 748 mmHg 50%
    17:00 +27°C° 0 mm 3 mps 747 mmHg 55%
    18:00 +26°C° 0 mm 3 mps 747 mmHg 61%
    19:00 +25°C° 0 mm 2 mps 747 mmHg 67%
    20:00 +23°C° 0.9 mm 2 mps 747 mmHg 73%
    21:00 +21°C° 0.9 mm 2 mps 747 mmHg 80%
    22:00 +21°C° 0.9 mm 1 mps 747 mmHg 86%
    23:00 +21°C° 0.3 mm 1 mps 747 mmHg 88%

    Tomorrow, 25 August, Sunday

    Time Temperature Precipitation Wind Pressure Humidity
    00:00 +20°C° 0.3 mm 1 mps 747 mmHg 90%
    01:00 +20°C° 0.3 mm 1 mps 747 mmHg 92%
    02:00 +20°C° 0.1 mm 1 mps 747 mmHg 93%
    03:00 +19°C° 0.1 mm 1 mps 746 mmHg 94%
    04:00 +19°C° 0.1 mm 1 mps 746 mmHg 95%
    05:00 +20°C° 0 mm 1 mps 746 mmHg 94%
    06:00 +20°C° 0 mm 1 mps 746 mmHg 92%
    07:00 +21°C° 0 mm 1 mps 746 mmHg 90%
    08:00 +23°C° 0 mm 1 mps 746 mmHg 82%
    09:00 +25°C° 0 mm 2 mps 746 mmHg 75%
    10:00 +27°C° 0 mm 2 mps 747 mmHg 67%
    11:00 +28°C° 0.2 mm 2 mps 746 mmHg 61%
    12:00 +30°C° 0.2 mm 2 mps 746 mmHg 56%
    13:00 +31°C° 0.2 mm 3 mps 746 mmHg 50%
    14:00 +31°C° 0.3 mm 2 mps 746 mmHg 50%
    15:00 +31°C° 0.3 mm 2 mps 746 mmHg 50%
    16:00 +31°C° 0.3 mm 2 mps 745 mmHg 49%
    17:00 +30°C° 0.2 mm 2 mps 745 mmHg 55%
    18:00 +28°C° 0.2 mm 2 mps 745 mmHg 60%
    19:00 +27°C° 0.2 mm 2 mps 745 mmHg 66%
    20:00 +26°C° 0.4 mm 1 mps 746 mmHg 70%
    21:00 +25°C° 0.4 mm 1 mps 746 mmHg 74%
    22:00 +24°C° 0.4 mm 1 mps 746 mmHg 78%
    23:00 +23°C° 0 mm 1 mps 746 mmHg 80%

    Day after tomorrow, 26 August, Monday

    Time Temperature Precipitation Wind Pressure Humidity
    00:00 +21°C° 0 mm 0 mps 746 mmHg 83%
    01:00 +20°C° 0 mm 0 mps 746 mmHg 85%
    02:00 +20°C° 0 mm 0 mps 746 mmHg 87%
    03:00 +19°C° 0 mm 0 mps 746 mmHg 88%
    04:00 +19°C° 0 mm 0 mps 746 mmHg 90%
    05:00 +20°C° 0 mm 0 mps 746 mmHg 88%
    06:00 +20°C° 0 mm 0 mps 746 mmHg 86%
    07:00 +21°C° 0 mm 0 mps 746 mmHg 83%
    08:00 +25°C° 0.1 mm 1 mps 746 mmHg 77%
    09:00 +26°C° 0.1 mm 1 mps 746 mmHg 71%
    10:00 +28°C° 0.1 mm 2 mps 746 mmHg 64%
    11:00 +29°C° 0.1 mm 2 mps 746 mmHg 59%
    12:00 +30°C° 0.1 mm 2 mps 746 mmHg 54%
    13:00 +32°C° 0.1 mm 2 mps 746 mmHg 49%
    14:00 +32°C° 0.1 mm 2 mps 746 mmHg 46%
    15:00 +32°C° 0.1 mm 2 mps 745 mmHg 44%
    16:00 +34°C° 0.1 mm 2 mps 745 mmHg 42%
    17:00 +31°C° 0 mm 2 mps 745 mmHg 48%
    18:00 +29°C° 0 mm 2 mps 745 mmHg 53%
    19:00 +28°C° 0 mm 2 mps 745 mmHg 59%
    20:00 +26°C° 0.3 mm 2 mps 745 mmHg 64%
    21:00 +25°C° 0.3 mm 2 mps 745 mmHg 69%
    22:00 +24°C° 0.3 mm 1 mps 745 mmHg 75%
    23:00 +23°C° 0 mm 1 mps 745 mmHg 76%

    27 August, Tuesday

    Time Temperature Precipitation Wind Pressure Humidity
    00:00 +23°C° 0 mm 1 mps 745 mmHg 77%
    01:00 +22°C° 0 mm 1 mps 745 mmHg 79%
    02:00 +22°C° 0 mm 1 mps 745 mmHg 80%
    03:00 +21°C° 0 mm 1 mps 745 mmHg 81%
    04:00 +21°C° 0 mm 1 mps 745 mmHg 83%
    05:00 +20°C° 0 mm 0 mps 745 mmHg 81%
    06:00 +20°C° 0 mm 0 mps 745 mmHg 79%
    07:00 +21°C° 0 mm 0 mps 745 mmHg 77%
    08:00 +25°C° 0 mm 1 mps 745 mmHg 71%
    09:00 +27°C° 0 mm 1 mps 745 mmHg 64%
    10:00 +29°C° 0 mm 1 mps 745 mmHg 58%
    11:00 +30°C° 0 mm 1 mps 745 mmHg 53%
    12:00 +31°C° 0 mm 1 mps 745 mmHg 48%
    13:00 +33°C° 0 mm 1 mps 745 mmHg 43%
    14:00 +33°C° 0.1 mm 1 mps 744 mmHg 44%
    15:00 +32°C° 0.1 mm 1 mps 744 mmHg 45%
    16:00 +32°C° 0.1 mm 1 mps 744 mmHg 45%
    17:00 +31°C° 0.1 mm 1 mps 744 mmHg 51%
    18:00 +29°C° 0.1 mm 2 mps 744 mmHg 57%
    19:00 +27°C° 0.1 mm 2 mps 743 mmHg 63%
    20:00 +26°C° 0.3 mm 1 mps 744 mmHg 67%
    21:00 +25°C° 0.3 mm 1 mps 744 mmHg 70%
    22:00 +24°C° 0.3 mm 1 mps 744 mmHg 74%
    23:00 +24°C° 0 mm 1 mps 744 mmHg 75%

    28 August, Wednesday

    Time Temperature Precipitation Wind Pressure Humidity
    00:00 +23°C° 0 mm 1 mps 744 mmHg 76%
    01:00 +23°C° 0 mm 1 mps 744 mmHg 78%
    02:00 +23°C° 0 mm 1 mps 744 mmHg 79%
    03:00 +23°C° 0 mm 1 mps 744 mmHg 80%
    04:00 +22°C° 0 mm 1 mps 744 mmHg 81%
    05:00 +23°C° 0 mm 1 mps 744 mmHg 79%
    06:00 +23°C° 0 mm 1 mps 744 mmHg 77%
    07:00 +24°C° 0 mm 1 mps 744 mmHg 76%
    08:00 +26°C° 0 mm 1 mps 744 mmHg 68%
    09:00 +28°C° 0 mm 1 mps 744 mmHg 60%
    10:00 +30°C° 0 mm 1 mps 745 mmHg 53%
    11:00 +30°C° 0 mm 1 mps 744 mmHg 49%
    12:00 +31°C° 0 mm 1 mps 744 mmHg 45%
    13:00 +32°C° 0 mm 1 mps 744 mmHg 41%
    14:00 +32°C° 0 mm 1 mps 744 mmHg 41%
    15:00 +32°C° 0 mm 1 mps 744 mmHg 40%
    16:00 +32°C° 0 mm 1 mps 743 mmHg 40%
    17:00 +30°C° 0 mm 1 mps 743 mmHg 45%
    18:00 +29°C° 0 mm 1 mps 743 mmHg 51%
    19:00 +27°C° 0 mm 1 mps 743 mmHg 57%
    20:00 +26°C° 0 mm 1 mps 743 mmHg 60%
    21:00 +25°C° 0 mm 1 mps 744 mmHg 63%
    22:00 +22°C° 0 mm 0 mps 744 mmHg 65%
    23:00 +22°C° 0 mm 0 mps 744 mmHg 66%

    29 August, Thursday

    Time Temperature Precipitation Wind Pressure Humidity
    00:00 +22°C° 0 mm 0 mps 744 mmHg 67%
    01:00 +21°C° 0 mm 0 mps 743 mmHg 68%
    02:00 +21°C° 0 mm 0 mps 743 mmHg 69%
    03:00 +21°C° 0 mm 0 mps 743 mmHg 70%
    04:00 +21°C° 0 mm 0 mps 743 mmHg 71%
    05:00 +21°C° 0 mm 0 mps 744 mmHg 70%
    06:00 +22°C° 0 mm 0 mps 744 mmHg 69%
    07:00 +23°C° 0 mm 0 mps 744 mmHg 69%
    08:00 +24°C° 0 mm 0 mps 744 mmHg 64%
    09:00 +26°C° 0 mm 0 mps 744 mmHg 59%
    10:00 +28°C° 0 mm 0 mps 744 mmHg 54%
    11:00 +30°C° 0.1 mm 1 mps 744 mmHg 50%
    12:00 +31°C° 0.1 mm 1 mps 744 mmHg 46%
    13:00 +32°C° 0.1 mm 1 mps 744 mmHg 42%
    14:00 +31°C° 0 mm 1 mps 744 mmHg 43%
    15:00 +31°C° 0 mm 1 mps 744 mmHg 44%
    16:00 +31°C° 0 mm 1 mps 743 mmHg 45%
    17:00 +29°C° 0 mm 1 mps 743 mmHg 50%
    18:00 +28°C° 0 mm 1 mps 743 mmHg 55%
    19:00 +26°C° 0 mm 1 mps 743 mmHg 60%
    20:00 +25°C° 0.1 mm 1 mps 743 mmHg 63%
    21:00 +25°C° 0.1 mm 1 mps 744 mmHg 65%
    22:00 +22°C° 0.1 mm 0 mps 744 mmHg 68%
    23:00 +21°C° 0.1 mm 0 mps 744 mmHg 71%
    Show more